User: anonymous   Login
Location: Kawakawa
(35.3830°S, 174.0670°E)
Time: 03:35:31
(UTC+12:00)
Language:

Resurs 01 Rocket - Orbit

View from above orbital plane
View from above orbital plane
View from above satellite
View from above satellite

Ground track
Ground track

The orbit data is extracted from the following two-line orbital elements,

1 23343U 94074B   19140.79931800  .00000008  00000-0  85598-5 0  9999
2 23343  98.0547 190.8752 0006451 349.0781 137.1626 14.76777650320528
Epoch (UTC): 20 May 2019 19:11:01
Eccentricity: 0.0006451
inclination: 98.0547°
perigee height: 635 km
apogee height: 644 km
right ascension of ascending node: 190.8752°
argument of perigee: 349.0781°
revolutions per day: 14.76777650
mean anomaly at epoch: 137.1626°
orbit number at epoch: 32052

The dashed part of the orbit path shows where the satellite is in the earth's shadow,  

DLR